Regional Weather Roundup
Issued by NWS

Home | Current Version | Previous Version | Graphics & Text | Print | Product List | Glossary On
Versions: 1 2 3 4 5 6 7 8 9 10 11 12 13 14 15 16 17 18 19 20 21 22 23 24 25 26 27 28 29 30 31 32 33 34 35 36 37 38 39 40 41 42 43 44 45 46 47 48 49 50
000
ASUS43 KIND 201309
RWRIN

WEATHER ROUNDUP FOR INDIANA
NATIONAL WEATHER SERVICE INDIANAPOLIS IN
800 AM EST SAT DEC 20 2014

NOTE: "FAIR" INDICATES FEW OR NO CLOUDS BELOW 12,000 FEET WITH NO
SIGNIFICANT WEATHER AND/OR OBSTRUCTIONS TO VISIBILITY.

* - STATION DOES NOT REPORT WEATHER SUCH AS PRECIPITATION OR FOG.

+ - STATION NOT QUALITY CONTROLLED BY THE NATIONAL WEATHER SERVICE.
    USE DATA WITH CAUTION...ESPECIALLY DEWPOINT AND RELATIVE
    HUMIDITY OBSERVATIONS.

INZ001>003-010>013-019-020-201400-
NORTHWEST INDIANA

CITY           SKY/WX    TMP DP  RH WIND       PRES   REMARKS
KNOX *+        CLOUDY    31  22  71 W3        30.28S
LA PORTE +     CLOUDY    32  26  77 W3        30.28S
MICHIGAN CITY+ CLOUDY    32  21  64 CALM      30.29S
MONTICELLO +   CLOUDY    29  28  95 CALM      30.29R
RENSSELAER +   CLOUDY    30  30 100 CALM      30.29S FOG
VALPARAISO     CLOUDY    30  24  78 CALM      30.28S

$$

LMZ046-743>745-201400-
SOUTHERN LAKE MICHIGAN

STATION/POSITION TIME  TEMP WIND        PRES
                       AIR  DIR/SP/G
                 (UTC) (F)  (DEG/KT/KT) (MB)

$$

INZ004-005-014>016-021>024-201400-
NORTH CENTRAL INDIANA

CITY           SKY/WX    TMP DP  RH WIND       PRES   REMARKS
ELKHART        CLOUDY    27  21  80 CALM      30.29
GOSHEN         CLOUDY    26  23  88 CALM      30.28R FOG
LOGANSPORT +   CLOUDY    30  28  93 CALM      30.30R FOG
PERU/GRISSOM   CLOUDY    28  28 100 SW2       30.28R FOG
ROCHESTER +    CLOUDY    32  30  93 CALM      30.28F FOG
SOUTH BEND     CLOUDY    31  26  82 W5        30.28S WCI  26
WARSAW +       CLOUDY    30  28  93 CALM      30.28R FOG

$$

INZ006>009-017-018-025>027-201400-
NORTHEAST INDIANA

CITY           SKY/WX    TMP DP  RH WIND       PRES   REMARKS
ANGOLA *+      CLOUDY    21  19  93 CALM      30.27R
AUBURN +       MOCLDY    23  19  86 CALM      30.29R FOG
FORT WAYNE     CLOUDY    27  24  89 CALM      30.30R
HUNTINGTON +   CLOUDY    28  28  96 CALM      30.28S FOG

$$

INZ028-029-035-036-043>045-051>053-201400-
WEST CENTRAL INDIANA

CITY           SKY/WX    TMP DP  RH WIND       PRES   REMARKS
GREENCASTLE +  MOCLDY    27  23  86 CALM      30.29S FOG
LAFAYETTE      CLOUDY    28  27  96 CALM      30.29S FOG
TERRE HAUTE    CLOUDY    29  26  89 CALM      30.30R

$$

INZ030>032-037>040-046>048-054>057-064-065-201400-
CENTRAL INDIANA

CITY           SKY/WX    TMP DP  RH WIND       PRES   REMARKS
CP ATTERBURY + CLOUDY    30  28  93 MISG      30.31R FOG
COLUMBUS       LGT SNOW  28  28 100 CALM      30.30R FOG
FRANKFORT +    MOCLDY    29  29 100 CALM      30.30R FOG
GREENWOOD *+   CLOUDY    28  25  86 CALM      30.29
INDIANAPOLIS   CLOUDY    27  24  89 W5        30.29R WCI  22
-EAGLE CREEK   CLOUDY    29  25  85 W3        30.29R
KOKOMO *+      CLOUDY    28  25  86 CALM      30.29R
MARION +       CLOUDY    28  28  98 CALM      30.29R FOG
MT COMFORT *+  CLOUDY    28  28 100 CALM      30.29R
SHELBYVILLE    CLOUDY    30  26  85 NW3       30.29R
ZIONSVILLE +   CLOUDY    29  26  89 CALM      30.29R FOG

$$

INZ033-034-041-042-049-050-058-059-201400-
EAST CENTRAL INDIANA

CITY           SKY/WX    TMP DP  RH WIND       PRES   REMARKS
MUNCIE         CLOUDY    29  25  85 CALM      30.29R FOG

$$

INZ060-061-067>069-081>083-085>088-201400-
SOUTHWEST INDIANA

CITY           SKY/WX    TMP DP  RH WIND       PRES   REMARKS
EVANSVILLE     CLOUDY    32  25  75 NE3       30.30F
HUNTINGBURG *+ CLOUDY    28  25  86 NE6       30.30S WCI  22
WASHINGTON +   CLOUDY    30  26  88 CALM      30.30S

$$

INZ062-063-066-070>080-084-089>092-201400-
SOUTH CENTRAL AND SOUTHEAST INDIANA

CITY           SKY/WX    TMP DP  RH WIND       PRES   REMARKS
BLOOMINGTON    CLOUDY    28  26  92 CALM      30.28R
NORTH VERNON + CLOUDY    28  28 100 CALM      30.30  FOG

$$




USA.gov is the U.S. government's official web portal to all federal, state and local government web resources and services.